Find Starlink 32369

NORAD ID: 60917 Int'l Des: 2024-154 Owner: SPXS Country: US Constellation: starlink operational
LEOCIRCULAR

Live-Position

3D-Globus wird geladen...

Über Starlink 32369

Beschreibung wird geladen...

Nächste Überflüge

Passes for default location (London). Set your location on the main map for personalized predictions.

Höhenverlauf

Loading altitude history...

Zweizeiliger Elementsatz

1 60917U 24154Q 26125.02902104 .00002966 00000-0 11222-3 0 9997
2 60917 53.1625 21.9476 0001064 106.9530 253.1588 15.30205455 94961
Epoch: 5. Mai 2026 • Age: 13 hours

Aktueller Status

Höhe 483.4 km
Geschwindigkeit 7.62 km/s
Subsatellitenpunkt -27.01°S, 145.66°E
Startdatum 31. Aug. 2024
Alter 1.6 years
Typ internet

Technische Details

Klassifizierung Payload
Masse 730.00 kg
Trockenmasse 700.00 kg
Gesamtmasse 730.00 kg
Länge 0.30 m
Durchmesser 4.10 m
Spannweite 29.00 m
Form Box + pan
Hersteller SPXS
Bus-Typ Starlink V2M
Phasenstatus In Orbit
Besitzer/Staat SPXS/US

Most Searched